Regional Weather Roundup
Issued by NWS San Diego, CA

Home | Current Version | Previous Version | Text Only | Print | Product List | Glossary On
Versions: 1 2 3 4 5 6 7 8 9 10 11 12 13 14 15 16 17 18 19 20 21 22 23 24 25 26 27 28 29 30 31 32 33 34 35 36 37 38 39 40 41 42 43 44 45 46 47 48 49 50
000
ASUS46 KSGX 260810
RWRSGX

SAN DIEGO HOURLY WEATHER ROUNDUP
NATIONAL WEATHER SERVICE SAN DIEGO CA
100 AM PDT SAT JUL 26 2014

NOTE: "FAIR" INDICATES FEW OR NO CLOUDS BELOW 12,000 FEET WITH NO
SIGNIFICANT WEATHER AND/OR OBSTRUCTIONS TO VISIBILITY.

CAZ042-043-060-061-PZZ750-775-260900-

GREATER SAN DIEGO AREA

CITY           SKY/WX    TMP DP  RH WIND       PRES   REMARKS
LINDBERGH FLD  PTCLDY    69  64  84 W5        29.93F
POINT LOMA       N/A     65  62  91 NW2         N/A
NATIONAL CITY    N/A     70  66  87 CALM      29.93F
CHULA VISTA      N/A     69  66  92 CALM      29.86F
IMPERIAL BEACH CLOUDY    69  65  86 W5        29.93F
BROWN FIELD    CLOUDY    67  64  90 CALM      29.93F
MIRAMAR MCAS   MOCLDY    66  62  87 CALM      29.93F
MONTGOMERY FLD CLEAR     69  64  84 CALM      29.93F

$$

NORTH SAN DIEGO COUNTY

CITY           SKY/WX    TMP DP  RH WIND       PRES   REMARKS
CAMP PENDLETON CLEAR     67  62  84 CALM      29.92F HAZE
OCEANSIDE AP   CLOUDY    67  63  87 CALM      29.92S
VISTA            N/A     66  63  88 CALM      29.90F
CARLSBAD       CLOUDY    69  65  86 CALM      29.92S FOG
DEL MAR          N/A     67  66  94 CALM      29.94F
LA JOLLA SCRIP   N/A     67  65  94 CALM      29.89F
FALLBROOK        N/A     67  67  99 CALM      29.93S
ESCONDIDO        N/A     69  65  86 CALM      29.93F
SAN MARCOS       N/A     67  63  86 CALM      29.90S
POWAY            N/A     67  63  87 CALM      29.93F
R. PENASQUITOS   N/A     68  66  93 CALM      29.92F

$$

EAST SAN DIEGO COUNTY

CITY           SKY/WX    TMP DP  RH WIND       PRES   REMARKS
RAMONA         CLEAR     65  60  84 CALM      29.96S
SANTEE LAKES     N/A     69  65  87 CALM      29.93S
GILLESPIE FLD  FAIR      70  64  83 CALM      29.94F FOG
LA MESA          N/A     69  65  90 CALM      29.86F
JAMUL            N/A     67  63  86 CALM      29.90F
DESCANSO N       N/A     68  44  42 E1        29.77S
MT. LAGUNA OBS   N/A     70  49  47 CALM      29.79S
CAMPO            N/A     65  53  65 NE5       29.99F

$$

ORANGE COUNTY AND THE LOS ANGELES BASIN

CITY           SKY/WX    TMP DP  RH WIND       PRES   REMARKS
JOHN WAYNE AP  CLEAR     72  65  78 SW3       29.92S
LAGUNA BEACH     N/A     68  64  87 CALM      29.88S
LAKE FOREST FR   N/A     67  61  82 CALM      29.81S
SANTA ANA        N/A     70  65  83 CALM      29.87S
HUNTINGTON BCH   N/A     68  65  91 CALM      29.94S
LOS ALAMITOS   FAIR      68  65  88 S2        29.92F
FULLERTON      CLEAR     72  63  73 SE5       29.91S
LONG BEACH     PTCLDY    70  64  81 SE3       29.92S
L.A. AP        FOG       68  64  88 W9        29.92F VSB 1/4
L.A. DOWNTOWN  PTCLDY    70  63  78 CALM      29.91F

$$

THE INLAND EMPIRE

CITY           SKY/WX    TMP DP  RH WIND       PRES   REMARKS
CORONA         CLEAR     71  64  78 W3        29.93F
CHINO          CLEAR     69  64  84 CALM      29.94S
ONTARIO        PTCLDY    74  62  66 W5        29.93F
RIVERSIDE AP   CLEAR     75  62  64 CALM      29.94S
RIV CYN CREST    N/A     75  69  82 CALM      29.92F
MORENO VALLEY    N/A     75  65  69 S2          N/A
MARCH ARB      CLEAR     73  60  64 W2        29.97S
HORSETHIEF CYN   N/A     73  58  59 CALM      29.92F
PERRIS           N/A     75  56  53 S3          N/A
MENIFEE          N/A     75  61  60 SW1       30.02S
HEMET EAST       N/A     73  50  43 CALM      29.90S
FRENCH VALLEY  FAIR      72  59  64 CALM      29.96S
TEMECULA         N/A     73  64  74 CALM      29.92S

$$

SAN BERNARDINO AND RIVERSIDE COUNTY MOUNTAINS

CITY           SKY/WX    TMP DP  RH WIND       PRES   REMARKS
BIG BEAR AP    CLEAR     55  28  35 CALM      30.31S
BIG BEAR SHEA    N/A     56  27  32 SW1       29.92R
ANGELUS OAKS     N/A     65  40  39 MISG      29.76F
PINE COVE        N/A     65  47  52 N3        29.86R

$$

SOUTHERN DESERT INCLUDING THE COACHELLA VALLEY

CITY           SKY/WX    TMP DP  RH WIND       PRES   REMARKS
PALM SPRINGS   PTCLDY    87  61  41 N3        29.84R
THOUSAND PALMS   N/A     89  57  33 NW5       29.78R
THERMAL        PTCLDY    89  59  36 VRB3      29.78R
BLYTHE         MOCLDY    94  64  37 S8        29.83R HX  95
IMPERIAL AP    MOCLDY    94  64  37 S3        29.77R HX  95
EL CENTRO NAS  MOCLDY    91  66  43 SW7       29.77S
YUMA AZ        MOCLDY    92  63  38 SW3       29.82R

$$

UPPER DESERT

CITY           SKY/WX    TMP DP  RH WIND       PRES   REMARKS
VICTORVILLE AP CLEAR     75  43  31 S7        30.01S
HESPERIA         N/A     77  51  39 CALM      29.92S
APPLE VALLEY     N/A     76  46  33 CALM      30.07S
GRAY BUTTE AP  NOT AVBL
PALMDALE       PTCLDY    80  33  18 SW5       29.99S
LANCASTER      PTCLDY    79  43  27 SW14      29.97F
EDWARDS AFB    PTCLDY    80  42  25 SW12      29.93F
DAGGETT        PTCLDY    87  41  19 W12       29.92S
29 PALMS N     PTCLDY    86  40  19 NW6       29.99R
NEEDLES        CLOUDY    95  59  30 SE20G32   29.87S

$$

REGIONAL REPORTS

CITY           SKY/WX    TMP DP  RH WIND       PRES   REMARKS
SANTA BARBARA  CLOUDY    64  61  88 CALM      29.92F FOG
SANDBERG       PTCLDY    74  45  35 W8        30.14F
MT. WILSON       N/A     70  30  23 MISG        N/A
LAS VEGAS NV   MOCLDY    94  52  24 S12       29.87R
PHOENIX AZ     CLOUDY    88  63  43 S9        29.89F
TIJUANA        MOCLDY    68  63  83 NW6       29.96S
ENSENADA NW      N/A     68  32  26 CALM      29.90S

$$

OFFSHORE ISLANDS

CITY           SKY/WX    TMP DP  RH WIND       PRES   REMARKS
CATALINA ARPT  FOG       62  59  90 SE6       29.96S VSB 3/4
SAN NICOLAS IS CLOUDY   N/A N/A N/A W9        29.92F

$$

MARINE AND OFFSHORE BUOY REPORTS

STATION/POSITION SKY/WX   TEMP    WIND        PRES    SWELL
                          AIR SEA DIR/SP/G            HT/PER/DIR
                          (F)     (DEG/KT/KT) (MB)    (FT/S/D)
TANNER BANKS               63 66  310/ 10/ 14 1013.6F
S CLEMENTE BASIN           67 70  310/  6/  8 1013.1S   3/290/ 9
SAN NICOLAS IS.               67                N/A     2/320/11
SO. S. ROSA ISLA           62 65  290/  8/ 10 1013.1S   5/10
W. S. BARBARA CH           59 63  310/ 10/ 12 1012.8R   5/320/10
M. S. BARBARA CH           61 65  220/  4/  6 1013.7R
S. MONICA BASIN            66 68  330/  4/  6 1012.9F   2/220/14
S PEDRO CHANNEL               67                N/A     2/170/14
DANA POINT                    70                N/A     2/180/14
CMP PENDLETON NS              71                N/A     2/210/15
OCEANSIDE OFFSHR              72                N/A     2/190/17
TORREY PINES OTR              70                N/A     2/190/14
LA JOLLA 1                 68 70  360/  1/  2 1013.4F
MISSION BAY BUOY              70                N/A     2/220/18
SAN DIEGO BAY                 72              1013.6F
POINT LOMA SOUTH              71                N/A     2/190/17

$$




USA.gov is the U.S. government's official web portal to all federal, state and local government web resources and services.